CZ-4B DEB, 37573

Orbit data source: Space-Track

CZ-4B DEB, 37573 is space debris in SSO originally from a launch on Tue, 27 May 2008 UTC launched from the Taiyaun Space Center, China (TSC). Debris objects in space refer to the collection of defunct objects orbiting the Earth. Examples of debris include non-operational satellites, rocket bodies, and fragments generated from explosions, collisions, or faulty payload assembly.

Loading next visibility...
Identifier
37573, 2008-026E
Orbit
SSO
Country
Flag of CNCN / PRC
Related business
Manufacturer
Unknown
Mission
Spacecraft
Bus & Motor
Unknown
Mass
Unknown
Launch date (UTC)
2008-05-27 (18 years ago)
Launch vehicle
Unknown
Launch site
Taiyaun Space Center, China (TSC)
Object type
Payload
Rocket body
Debris
Shape & HBR
Unknown shape, 0.1 m
Radar Cross Section
Small (<0.1 m²)

Expand to show TLE details & history
Last TLE update: 3 days ago

TLE from 3 days ago
0 CZ-4B DEB
1 37573U 08026E   26170.30188721  .00000311  00000-0  26772-3 0  9999
2 37573  98.7237 208.8953 0221257  87.1691 336.3056 13.82271183892246
Epoch: 2026-06-19T07:14Z
TLE epoch observation values (Epoch: 2026-06-19T07:14:43.054Z)
Latitude
61.28122°
Longitude
176.50858°
Altitude
818.248 km
Speed
7.525 km/s
True Right ascension
12h 50m 52s
True Declination
61° 08' 14"
Sunlit
Object was in daylight at epoch
Visualization orbit readout
Latitude
Unknown
Longitude
Unknown
Altitude
Unknown
Speed
Unknown
Apparent Right ascension
Unknown
Apparent Declination
Unknown
Sunlit
N/A
Visualization observer readout
Local Sidereal Time
23:08:01
Azimuth
Unknown
Elevation
Unknown
Doppler factor
Unknown
Orbital elements
Apogee altitude
1,115.258 km
Perigee altitude
790.842 km
Semi-major axis
7,331.187 km
Eccentricity
0.02213
Inclination
98.7237°
RAAN
208.8953°
Arg. of periapsis
87.1691°
True anomaly
335.26033°
Mean anomaly
336.3056°
Eccentric anomaly
335.78565°
Mean motion
3.45766 °/min
Orbital period
104.12 mins
BSTAR
0.00026772
Loading maneuver chart data...
Computing Atmospheric mass density...
Loading historical data...
Loading historical data...
Loading historical data...
Loading historical data...
Loading historical data...
Loading historical data...
Loading historical data...

Documentation

Showing up to 5 results
|